AUA374V LFMN-LOWW

Flight info

Callsign AUA374V
Flight time 1h 19m
Altitude 38000
Route BASIP DCT EGHIN DCT ANAKI DCT KALIK DCT ARALD/N0447F370 DCT ABTAN ABTAN2W
Aircraft A320/M-SDE3FGHIRWY/LB1

Departure

Time 2026-04-22 15:17
Airport Nice-Côte d'Azur Airport (LFMN)

Arrival

Time 2026-04-22 16:36
Airport Vienna International Airport (LOWW)
Time Latitude Longitude Altitude Speed Heading
2026-04-22 15:06 43.66403 7.21180 21 ft 0 kts 351°
2026-04-22 15:08 43.66402 7.21180 21 ft 0 kts 351°
2026-04-22 15:10 43.66379 7.21186 21 ft 4 kts 345°
2026-04-22 15:10 43.66353 7.21197 23 ft 4 kts 333°
2026-04-22 15:10 43.66333 7.21218 25 ft 4 kts 295°
2026-04-22 15:10 43.66330 7.21238 22 ft 1 kts 261°
2026-04-22 15:11 43.66330 7.21241 22 ft 1 kts 261°
2026-04-22 15:13 43.66328 7.21222 23 ft 7 kts 261°
2026-04-22 15:13 43.66315 7.21113 24 ft 14 kts 261°
2026-04-22 15:13 43.66293 7.21008 22 ft 10 kts 225°
2026-04-22 15:13 43.66229 7.21006 21 ft 9 kts 169°
2026-04-22 15:14 43.66173 7.21020 22 ft 8 kts 172°
2026-04-22 15:14 43.66091 7.21038 21 ft 17 kts 171°
2026-04-22 15:14 43.65952 7.21089 21 ft 23 kts 152°
2026-04-22 15:14 43.65827 7.20972 21 ft 26 kts 226°
2026-04-22 15:15 43.65692 7.20787 21 ft 28 kts 225°
2026-04-22 15:15 43.65550 7.20590 21 ft 30 kts 225°
2026-04-22 15:15 43.65402 7.20390 21 ft 28 kts 224°
2026-04-22 15:15 43.65271 7.20302 22 ft 21 kts 148°
2026-04-22 15:16 43.65162 7.20449 22 ft 22 kts 135°
2026-04-22 15:16 43.65071 7.20574 21 ft 10 kts 134°
2026-04-22 15:16 43.65025 7.20636 22 ft 9 kts 136°
2026-04-22 15:16 43.65007 7.20706 23 ft 9 kts 58°
2026-04-22 15:17 43.65086 7.20818 22 ft 35 kts 45°
2026-04-22 15:17 43.65443 7.21308 24 ft 105 kts 45°
2026-04-22 15:17 43.66089 7.22204 95 ft 149 kts 46°
2026-04-22 15:17 43.66723 7.23210 761 ft 140 kts 62°
2026-04-22 15:18 43.66987 7.24505 1272 ft 144 kts 88°
2026-04-22 15:18 43.66797 7.25959 1477 ft 171 kts 113°
2026-04-22 15:18 43.65989 7.27442 1567 ft 208 kts 131°
2026-04-22 15:18 43.64972 7.28956 2180 ft 219 kts 133°
2026-04-22 15:19 43.63941 7.30509 3068 ft 218 kts 126°
2026-04-22 15:19 43.63344 7.32396 3897 ft 217 kts 93°
2026-04-22 15:19 43.63636 7.34435 4680 ft 219 kts 69°
2026-04-22 15:19 43.64192 7.36385 5546 ft 218 kts 70°
2026-04-22 15:20 43.64546 7.37694 6061 ft 220 kts 70°
2026-04-22 15:20 43.65251 7.40355 7021 ft 225 kts 70°
2026-04-22 15:20 43.65793 7.42438 7727 ft 230 kts 69°
2026-04-22 15:20 43.66335 7.44539 8413 ft 235 kts 69°
2026-04-22 15:21 43.66887 7.46663 9091 ft 240 kts 68°
2026-04-22 15:21 43.67455 7.48860 9828 ft 245 kts 67°
2026-04-22 15:21 43.68058 7.51161 10256 ft 266 kts 66°
2026-04-22 15:21 43.68729 7.53670 10604 ft 290 kts 66°
2026-04-22 15:22 43.69460 7.56387 10884 ft 314 kts 66°
2026-04-22 15:22 43.70247 7.59317 11139 ft 335 kts 67°
2026-04-22 15:22 43.71063 7.62385 11713 ft 344 kts 67°
2026-04-22 15:22 43.71888 7.65515 12425 ft 348 kts 66°
2026-04-22 15:23 43.72440 7.67609 12909 ft 351 kts 66°
2026-04-22 15:23 43.73370 7.70739 13624 ft 352 kts 57°
2026-04-22 15:23 43.74766 7.73504 14272 ft 351 kts 44°
2026-04-22 15:23 43.76387 7.76041 14886 ft 354 kts 44°
2026-04-22 15:24 43.78032 7.78604 15511 ft 358 kts 43°
2026-04-22 15:24 43.79699 7.81197 16113 ft 362 kts 43°
2026-04-22 15:24 43.81384 7.83823 16710 ft 367 kts 43°
2026-04-22 15:24 43.83088 7.86485 17295 ft 372 kts 43°
2026-04-22 15:25 43.84811 7.89185 17871 ft 377 kts 43°
2026-04-22 15:25 43.86551 7.91926 18461 ft 381 kts 43°
2026-04-22 15:25 43.88306 7.94697 18958 ft 384 kts 44°
2026-04-22 15:25 43.90077 7.97499 19497 ft 388 kts 43°
2026-04-22 15:26 43.91867 8.00328 20008 ft 391 kts 43°
2026-04-22 15:26 43.93670 8.03176 20543 ft 395 kts 43°
2026-04-22 15:26 43.95488 8.06045 21083 ft 397 kts 42°
2026-04-22 15:26 43.97294 8.08896 21598 ft 400 kts 42°
2026-04-22 15:27 43.99138 8.11810 22130 ft 403 kts 42°
2026-04-22 15:27 44.00991 8.14751 22661 ft 407 kts 42°
2026-04-22 15:27 44.02860 8.17719 23159 ft 410 kts 42°
2026-04-22 15:27 44.04695 8.20789 23662 ft 418 kts 48°
2026-04-22 15:28 44.06212 8.24289 24072 ft 429 kts 58°
2026-04-22 15:28 44.07376 8.28147 24471 ft 435 kts 63°
2026-04-22 15:28 44.08504 8.32065 24867 ft 438 kts 63°
2026-04-22 15:28 44.09645 8.36011 25245 ft 442 kts 62°
2026-04-22 15:29 44.10797 8.39993 25556 ft 446 kts 62°
2026-04-22 15:29 44.11958 8.44018 25936 ft 450 kts 62°
2026-04-22 15:29 44.13124 8.48073 26290 ft 453 kts 62°
2026-04-22 15:30 44.15477 8.56269 26989 ft 458 kts 62°
2026-04-22 15:30 44.16661 8.60407 27336 ft 461 kts 62°
2026-04-22 15:30 44.17850 8.64572 27678 ft 464 kts 62°
2026-04-22 15:30 44.19039 8.68758 28020 ft 466 kts 63°
2026-04-22 15:31 44.20232 8.72975 28366 ft 470 kts 63°
2026-04-22 15:31 44.21378 8.77269 28658 ft 474 kts 64°
2026-04-22 15:31 44.22447 8.81574 28963 ft 478 kts 66°
2026-04-22 15:31 44.23490 8.85984 29269 ft 481 kts 66°
2026-04-22 15:32 44.24522 8.90436 29571 ft 483 kts 66°
2026-04-22 15:32 44.25560 8.94912 29870 ft 486 kts 66°
2026-04-22 15:32 44.26615 8.99403 30190 ft 488 kts 65°
2026-04-22 15:32 44.27688 9.03898 30440 ft 489 kts 65°
2026-04-22 15:33 44.28775 9.08398 30691 ft 490 kts 65°
2026-04-22 15:33 44.29870 9.12914 30915 ft 493 kts 65°
2026-04-22 15:33 44.30970 9.17460 31125 ft 495 kts 65°
2026-04-22 15:33 44.32070 9.22027 31355 ft 496 kts 65°
2026-04-22 15:34 44.33161 9.26600 31659 ft 496 kts 65°
2026-04-22 15:34 44.34231 9.31117 31996 ft 495 kts 65°
2026-04-22 15:34 44.35306 9.35693 32381 ft 493 kts 65°
2026-04-22 15:34 44.36371 9.40239 32778 ft 492 kts 65°
2026-04-22 15:35 44.37442 9.44773 33094 ft 490 kts 65°
2026-04-22 15:35 44.38515 9.49296 33413 ft 490 kts 64°
2026-04-22 15:35 44.39592 9.53825 33695 ft 490 kts 64°
2026-04-22 15:35 44.40663 9.58340 34018 ft 489 kts 64°
2026-04-22 15:36 44.41730 9.62857 34291 ft 488 kts 64°
2026-04-22 15:36 44.42789 9.67364 34594 ft 487 kts 64°
2026-04-22 15:36 44.43827 9.71813 34880 ft 486 kts 64°
2026-04-22 15:36 44.44868 9.76307 35181 ft 485 kts 65°
2026-04-22 15:37 44.46011 9.80721 35437 ft 478 kts 58°
2026-04-22 15:37 44.47535 9.84791 35723 ft 467 kts 49°
2026-04-22 15:37 44.49416 9.88439 35982 ft 457 kts 41°
2026-04-22 15:37 44.51558 9.91668 36115 ft 452 kts 37°
2026-04-22 15:38 44.53748 9.94831 36144 ft 452 kts 37°
2026-04-22 15:38 44.60272 10.04335 36154 ft 449 kts 37°
2026-04-22 15:39 44.64592 10.10670 36157 ft 449 kts 37°
2026-04-22 15:39 44.68912 10.16997 36162 ft 448 kts 37°
2026-04-22 15:40 44.73230 10.23322 36189 ft 448 kts 37°
2026-04-22 15:40 44.77538 10.29642 36188 ft 446 kts 37°
2026-04-22 15:41 44.81828 10.35971 36157 ft 447 kts 38°
2026-04-22 15:41 44.86113 10.42317 36157 ft 447 kts 38°
2026-04-22 15:42 44.90364 10.48640 36193 ft 447 kts 38°
2026-04-22 15:42 44.94645 10.55003 36161 ft 447 kts 38°
2026-04-22 15:43 44.98931 10.61376 36163 ft 447 kts 38°
2026-04-22 15:43 45.03208 10.67742 36163 ft 447 kts 38°
2026-04-22 15:44 45.07475 10.74126 36186 ft 447 kts 39°
2026-04-22 15:44 45.11738 10.80527 36200 ft 447 kts 40°
2026-04-22 15:45 45.16008 10.86945 36161 ft 447 kts 39°
2026-04-22 15:45 45.20281 10.93369 36174 ft 447 kts 39°
2026-04-22 15:46 45.24520 10.99770 36190 ft 448 kts 40°
2026-04-22 15:46 45.28768 11.06216 36167 ft 447 kts 40°
2026-04-22 15:47 45.33022 11.12664 36168 ft 447 kts 40°
2026-04-22 15:47 45.37271 11.19119 36168 ft 447 kts 40°
2026-04-22 15:48 45.41518 11.25583 36189 ft 447 kts 40°
2026-04-22 15:48 45.45749 11.32057 36169 ft 446 kts 40°
2026-04-22 15:49 45.49970 11.38535 36167 ft 445 kts 40°
2026-04-22 15:49 45.54190 11.45001 36173 ft 445 kts 40°
2026-04-22 15:50 45.58406 11.51482 36166 ft 445 kts 40°
2026-04-22 15:50 45.62603 11.57954 36166 ft 443 kts 41°
2026-04-22 15:51 45.66790 11.64422 36161 ft 443 kts 41°
2026-04-22 15:51 45.70937 11.70856 36161 ft 443 kts 41°
2026-04-22 15:52 45.75111 11.77347 36155 ft 443 kts 41°
2026-04-22 15:52 45.79278 11.83830 36157 ft 442 kts 41°
2026-04-22 15:53 45.83444 11.90315 36152 ft 442 kts 41°
2026-04-22 15:53 45.87592 11.96813 36149 ft 442 kts 41°
2026-04-22 15:54 45.91741 12.03330 36152 ft 442 kts 41°
2026-04-22 15:54 45.95885 12.09854 36141 ft 440 kts 42°
2026-04-22 15:55 45.99998 12.16336 36151 ft 441 kts 42°
2026-04-22 15:55 46.04137 12.22852 36154 ft 441 kts 42°
2026-04-22 15:56 46.08268 12.29380 36150 ft 441 kts 42°
2026-04-22 15:56 46.12394 12.35928 36158 ft 441 kts 43°
2026-04-22 15:57 46.16506 12.42491 36155 ft 441 kts 43°
2026-04-22 15:57 46.20623 12.49043 36153 ft 440 kts 43°
2026-04-22 15:58 46.24730 12.55604 36155 ft 440 kts 43°
2026-04-22 15:58 46.28829 12.62165 36148 ft 439 kts 43°
2026-04-22 15:59 46.32916 12.68724 36144 ft 438 kts 43°
2026-04-22 15:59 46.36960 12.75254 36134 ft 438 kts 43°
2026-04-22 16:00 46.41031 12.81842 36138 ft 438 kts 43°
2026-04-22 16:00 46.45101 12.88423 36149 ft 438 kts 43°
2026-04-22 16:01 46.49169 12.94997 36134 ft 437 kts 44°
2026-04-22 16:01 46.53225 13.01583 36157 ft 437 kts 44°
2026-04-22 16:02 46.57271 13.08182 36143 ft 437 kts 44°
2026-04-22 16:02 46.61288 13.14763 36149 ft 437 kts 44°
2026-04-22 16:03 46.65323 13.21372 36152 ft 437 kts 44°
2026-04-22 16:03 46.69064 13.28353 36154 ft 442 kts 57°
2026-04-22 16:04 46.71927 13.36326 36166 ft 443 kts 58°
2026-04-22 16:04 46.74761 13.44302 36164 ft 443 kts 59°
2026-04-22 16:05 46.77594 13.52302 36182 ft 443 kts 58°
2026-04-22 16:05 46.80418 13.60298 36178 ft 442 kts 59°
2026-04-22 16:06 46.83220 13.68258 36197 ft 441 kts 59°
2026-04-22 16:06 46.86017 13.76229 36195 ft 441 kts 59°
2026-04-22 16:07 46.88792 13.84161 36204 ft 441 kts 59°
2026-04-22 16:07 46.91583 13.92154 36204 ft 441 kts 59°
2026-04-22 16:08 46.94375 14.00155 36224 ft 441 kts 59°
2026-04-22 16:08 46.97142 14.08148 36202 ft 439 kts 59°
2026-04-22 16:09 46.99881 14.16066 36215 ft 438 kts 59°
2026-04-22 16:09 47.02638 14.24043 36216 ft 438 kts 59°
2026-04-22 16:10 47.05382 14.32031 36203 ft 439 kts 60°
2026-04-22 16:10 47.08118 14.40038 36033 ft 440 kts 60°
2026-04-22 16:11 47.09023 14.42694 35867 ft 438 kts 60°
2026-04-22 16:11 47.10388 14.46693 35625 ft 437 kts 59°
2026-04-22 16:11 47.11799 14.50644 34801 ft 438 kts 58°
2026-04-22 16:11 47.13285 14.54549 33645 ft 435 kts 57°
2026-04-22 16:12 47.14762 14.58366 32738 ft 425 kts 57°
2026-04-22 16:12 47.16194 14.62073 32366 ft 412 kts 57°
2026-04-22 16:12 47.17604 14.65727 32111 ft 411 kts 57°
2026-04-22 16:12 47.19003 14.69369 31819 ft 405 kts 58°
2026-04-22 16:13 47.20367 14.72973 31502 ft 404 kts 57°
2026-04-22 16:13 47.21747 14.76570 31258 ft 402 kts 57°
2026-04-22 16:13 47.23125 14.80133 30862 ft 400 kts 57°
2026-04-22 16:13 47.24494 14.83672 30371 ft 396 kts 57°
2026-04-22 16:14 47.25846 14.87179 29808 ft 392 kts 57°
2026-04-22 16:14 47.27180 14.90654 29215 ft 388 kts 57°
2026-04-22 16:14 47.28500 14.94101 28660 ft 384 kts 58°
2026-04-22 16:14 47.29804 14.97523 28094 ft 381 kts 58°
2026-04-22 16:15 47.31097 15.00918 27541 ft 378 kts 58°
2026-04-22 16:15 47.32377 15.04281 27003 ft 375 kts 58°
2026-04-22 16:15 47.33647 15.07620 26469 ft 372 kts 58°
2026-04-22 16:15 47.34908 15.10935 25980 ft 369 kts 58°
2026-04-22 16:16 47.36164 15.14226 25495 ft 366 kts 58°
2026-04-22 16:16 47.37407 15.17477 25059 ft 362 kts 58°
2026-04-22 16:16 47.38639 15.20698 24632 ft 358 kts 58°
2026-04-22 16:16 47.39859 15.23887 24205 ft 355 kts 58°
2026-04-22 16:17 47.41069 15.27049 23757 ft 352 kts 58°
2026-04-22 16:17 47.42267 15.30180 23277 ft 348 kts 58°
2026-04-22 16:17 47.43433 15.33230 22850 ft 343 kts 58°
2026-04-22 16:17 47.44596 15.36285 22413 ft 339 kts 58°
2026-04-22 16:18 47.45760 15.39340 21986 ft 335 kts 58°
2026-04-22 16:18 47.46882 15.42279 21567 ft 332 kts 58°
2026-04-22 16:18 47.48006 15.45234 21148 ft 328 kts 58°
2026-04-22 16:18 47.49113 15.48154 20717 ft 323 kts 58°
2026-04-22 16:19 47.50208 15.51044 20316 ft 321 kts 58°
2026-04-22 16:19 47.51297 15.53918 19901 ft 319 kts 58°
2026-04-22 16:19 47.52381 15.56787 19486 ft 318 kts 59°
2026-04-22 16:19 47.53456 15.59633 19092 ft 316 kts 58°
2026-04-22 16:20 47.54527 15.62470 18684 ft 315 kts 58°
2026-04-22 16:20 47.55594 15.65295 18273 ft 314 kts 58°
2026-04-22 16:20 47.56657 15.68115 17844 ft 312 kts 59°
2026-04-22 16:20 47.57709 15.70913 17457 ft 309 kts 58°
2026-04-22 16:21 47.58749 15.73682 17068 ft 307 kts 58°
2026-04-22 16:21 47.59768 15.76400 16675 ft 305 kts 58°
2026-04-22 16:21 47.60791 15.79138 16301 ft 303 kts 58°
2026-04-22 16:21 47.61811 15.81862 15929 ft 301 kts 58°
2026-04-22 16:22 47.63841 15.87278 15189 ft 300 kts 58°
2026-04-22 16:22 47.64851 15.89980 14809 ft 299 kts 58°
2026-04-22 16:22 47.65861 15.92677 14436 ft 298 kts 58°
2026-04-22 16:23 47.67836 15.97984 13912 ft 288 kts 58°
2026-04-22 16:23 47.68791 16.00557 13727 ft 280 kts 58°
2026-04-22 16:23 47.69743 16.03116 13044 ft 289 kts 58°
2026-04-22 16:24 47.70722 16.05743 12558 ft 291 kts 58°
2026-04-22 16:24 47.72647 16.10941 11788 ft 279 kts 58°
2026-04-22 16:24 47.73559 16.13408 11443 ft 266 kts 58°
2026-04-22 16:25 47.74433 16.15778 10960 ft 259 kts 58°
2026-04-22 16:25 47.76102 16.20306 10239 ft 241 kts 58°
2026-04-22 16:25 47.76895 16.22462 10138 ft 235 kts 58°
2026-04-22 16:26 47.77657 16.24536 10038 ft 223 kts 57°
2026-04-22 16:26 47.78390 16.26528 9789 ft 220 kts 57°
2026-04-22 16:26 47.79139 16.28555 9273 ft 227 kts 57°
2026-04-22 16:26 47.79908 16.30630 8798 ft 232 kts 57°
2026-04-22 16:27 47.80695 16.32756 8319 ft 237 kts 57°
2026-04-22 16:27 47.81490 16.34910 7835 ft 236 kts 57°
2026-04-22 16:27 47.82258 16.37005 7371 ft 232 kts 57°
2026-04-22 16:27 47.83021 16.39094 6898 ft 228 kts 56°
2026-04-22 16:28 47.83777 16.41157 6445 ft 225 kts 56°
2026-04-22 16:28 47.84523 16.43188 5973 ft 222 kts 57°
2026-04-22 16:28 47.85256 16.45191 5520 ft 219 kts 56°
2026-04-22 16:28 47.85974 16.47163 5087 ft 214 kts 56°
2026-04-22 16:29 47.86677 16.49093 4661 ft 211 kts 56°
2026-04-22 16:29 47.87361 16.50973 4435 ft 197 kts 55°
2026-04-22 16:29 47.87993 16.52721 4437 ft 187 kts 56°
2026-04-22 16:29 47.88609 16.54412 4373 ft 185 kts 56°
2026-04-22 16:30 47.89007 16.55506 4332 ft 177 kts 56°
2026-04-22 16:30 47.89761 16.57578 4238 ft 165 kts 55°
2026-04-22 16:30 47.90297 16.59045 4170 ft 162 kts 56°
2026-04-22 16:30 47.90835 16.60518 4096 ft 162 kts 55°
2026-04-22 16:31 47.91376 16.62001 4034 ft 165 kts 56°
2026-04-22 16:31 47.91949 16.63474 3908 ft 163 kts 46°
2026-04-22 16:31 47.92767 16.64562 3785 ft 155 kts 26°
2026-04-22 16:31 47.93758 16.65098 3645 ft 151 kts
2026-04-22 16:32 47.94801 16.65050 3491 ft 150 kts 346°
2026-04-22 16:32 47.95801 16.64636 3294 ft 149 kts 344°
2026-04-22 16:32 47.96800 16.64216 3101 ft 148 kts 346°
2026-04-22 16:32 47.97794 16.63798 2902 ft 149 kts 345°
2026-04-22 16:33 47.98790 16.63379 2710 ft 148 kts 345°
2026-04-22 16:33 47.99750 16.62975 2517 ft 136 kts 345°
2026-04-22 16:33 48.00646 16.62599 2324 ft 131 kts 345°
2026-04-22 16:33 48.01509 16.62234 2152 ft 128 kts 345°
2026-04-22 16:34 48.02365 16.61870 1959 ft 129 kts 345°
2026-04-22 16:34 48.03220 16.61508 1784 ft 127 kts 346°
2026-04-22 16:34 48.04064 16.61149 1623 ft 125 kts 346°
2026-04-22 16:34 48.04902 16.60808 1440 ft 128 kts 346°
2026-04-22 16:35 48.05745 16.60457 1311 ft 127 kts 345°
2026-04-22 16:35 48.06603 16.60094 1121 ft 130 kts 345°
2026-04-22 16:35 48.07502 16.59712 951 ft 137 kts 344°
2026-04-22 16:35 48.08421 16.59323 741 ft 137 kts 344°
2026-04-22 16:36 48.09306 16.58943 620 ft 122 kts 345°
2026-04-22 16:36 48.09983 16.58662 617 ft 80 kts 344°
2026-04-22 16:36 48.10460 16.58461 616 ft 63 kts 344°
2026-04-22 16:36 48.10821 16.58307 616 ft 43 kts 345°
2026-04-22 16:37 48.10991 16.58184 615 ft 21 kts 313°
2026-04-22 16:37 48.11068 16.58001 611 ft 20 kts 294°
2026-04-22 16:37 48.11126 16.57813 615 ft 20 kts 295°
2026-04-22 16:37 48.11188 16.57620 619 ft 21 kts 296°
2026-04-22 16:38 48.11256 16.57417 618 ft 22 kts 296°
2026-04-22 16:38 48.11326 16.57202 618 ft 23 kts 296°
2026-04-22 16:38 48.11398 16.56979 613 ft 24 kts 294°
2026-04-22 16:38 48.11472 16.56749 612 ft 25 kts 297°
2026-04-22 16:39 48.11551 16.56512 620 ft 26 kts 295°
2026-04-22 16:39 48.11620 16.56299 620 ft 17 kts 296°
2026-04-22 16:39 48.11715 16.56285 611 ft 16 kts 26°
2026-04-22 16:39 48.11743 16.56415 618 ft 16 kts 116°
2026-04-22 16:40 48.11698 16.56554 613 ft 14 kts 115°
2026-04-22 16:40 48.11650 16.56667 612 ft 10 kts 166°
2026-04-22 16:40 48.11590 16.56632 612 ft 0 kts 206°